,,PressureMeas_1m,,PRMeasQMR101_1,,RHStat155_1m_1,,SRMeasQMS101R_1m,,TAStat155_1m_1,,GenWind_1,,GenWind_1,
2017-09-15, 07:00:06,VALID,916.973,VALID,0.0,VALID,97.88,VALID,118.911,VALID,19.579,VALID,159.0,VALID,1.375,
2017-09-15, 07:01:06,VALID,916.989,VALID,0.0,VALID,97.785,VALID,121.246,VALID,19.578,VALID,146.0,VALID,1.667,
2017-09-15, 07:02:06,VALID,916.99,VALID,0.0,VALID,97.631,VALID,130.674,VALID,19.537,VALID,134.0,VALID,1.28,
2017-09-15, 07:03:06,VALID,917.008,VALID,0.0,VALID,97.618,VALID,137.27,VALID,19.54,VALID,139.0,VALID,0.943,
2017-09-15, 07:04:06,VALID,917.019,VALID,0.0,VALID,97.806,VALID,141.908,VALID,19.602,VALID,149.0,VALID,0.889,
2017-09-15, 07:05:06,VALID,917.031,VALID,0.0,VALID,97.889,VALID,144.423,VALID,19.66,VALID,155.0,VALID,0.671,
2017-09-15, 07:06:06,VALID,917.048,VALID,0.0,VALID,97.907,VALID,150.313,VALID,19.717,VALID,160.0,VALID,0.572,
2017-09-15, 07:07:06,VALID,917.075,VALID,0.0,VALID,97.916,VALID,156.758,VALID,19.777,VALID,150.0,VALID,0.475,
2017-09-15, 07:08:06,VALID,917.107,VALID,0.0,VALID,97.919,VALID,162.004,VALID,19.856,VALID,180.0,VALID,0.093,
2017-09-15, 07:09:06,VALID,917.118,VALID,0.0,VALID,97.911,VALID,166.876,VALID,19.959,VALID,157.0,VALID,0.372,
2017-09-15, 07:10:06,VALID,917.134,VALID,0.0,VALID,97.732,VALID,170.968,VALID,19.994,VALID,142.0,VALID,0.745,
2017-09-15, 07:11:06,VALID,917.13,VALID,0.0,VALID,97.26,VALID,174.283,VALID,19.981,VALID,131.0,VALID,1.133,
2017-09-15, 07:12:06,VALID,917.132,VALID,0.0,VALID,96.778,VALID,174.833,VALID,20.003,VALID,121.0,VALID,1.243,
2017-09-15, 07:13:06,VALID,917.129,VALID,0.0,VALID,96.593,VALID,169.914,VALID,20.065,VALID,111.0,VALID,1.621,
2017-09-15, 07:14:06,VALID,917.13,VALID,0.0,VALID,95.829,VALID,186.689,VALID,20.053,VALID,106.0,VALID,1.55,
2017-09-15, 07:15:06,VALID,917.118,VALID,0.0,VALID,95.796,VALID,189.29,VALID,20.08,VALID,99.0,VALID,1.514,
2017-09-15, 07:16:06,VALID,917.133,VALID,0.0,VALID,96.054,VALID,199.136,VALID,20.154,VALID,95.0,VALID,1.108,
2017-09-15, 07:17:06,VALID,917.124,VALID,0.0,VALID,96.66,VALID,205.948,VALID,20.276,VALID,63.0,VALID,1.348,
2017-09-15, 07:18:06,VALID,917.135,VALID,0.0,VALID,96.642,VALID,207.231,VALID,20.311,VALID,90.0,VALID,1.413,
2017-09-15, 07:19:06,VALID,917.146,VALID,0.0,VALID,96.053,VALID,207.472,VALID,20.288,VALID,67.0,VALID,1.528,
2017-09-15, 07:20:06,VALID,917.166,VALID,0.0,VALID,96.131,VALID,210.963,VALID,20.324,VALID,82.0,VALID,1.396,
2017-09-15, 07:21:06,VALID,917.202,VALID,0.0,VALID,96.139,VALID,212.139,VALID,20.353,VALID,80.0,VALID,1.574,
2017-09-15, 07:22:06,VALID,917.198,VALID,0.0,VALID,95.341,VALID,211.827,VALID,20.353,VALID,68.0,VALID,1.477,
2017-09-15, 07:23:06,VALID,917.217,VALID,0.0,VALID,95.195,VALID,211.279,VALID,20.375,VALID,70.0,VALID,1.298,
2017-09-15, 07:24:06,VALID,917.225,VALID,0.0,VALID,95.205,VALID,213.559,VALID,20.405,VALID,64.0,VALID,1.063,
2017-09-15, 07:25:06,VALID,917.219,VALID,0.0,VALID,95.419,VALID,217.756,VALID,20.45,VALID,61.0,VALID,1.228,
2017-09-15, 07:26:06,VALID,917.222,VALID,0.0,VALID,95.182,VALID,222.513,VALID,20.471,VALID,73.0,VALID,1.107,
2017-09-15, 07:27:06,VALID,917.232,VALID,0.0,VALID,94.823,VALID,226.788,VALID,20.512,VALID,102.0,VALID,1.283,
2017-09-15, 07:28:06,VALID,917.224,VALID,0.0,VALID,94.883,VALID,232.493,VALID,20.566,VALID,83.0,VALID,0.948,
2017-09-15, 07:29:06,VALID,917.238,VALID,0.0,VALID,95.209,VALID,233.556,VALID,20.634,VALID,109.0,VALID,0.713,
2017-09-15, 07:30:06,VALID,917.249,VALID,0.0,VALID,95.179,VALID,223.067,VALID,20.727,VALID,115.0,VALID,0.732,
2017-09-15, 07:31:06,VALID,917.262,VALID,0.0,VALID,94.185,VALID,231.2,VALID,20.787,VALID,105.0,VALID,0.512,
2017-09-15, 07:32:06,VALID,917.273,VALID,0.0,VALID,94.709,VALID,241.231,VALID,20.935,VALID,77.0,VALID,0.138,
2017-09-15, 07:33:06,VALID,917.291,VALID,0.0,VALID,94.361,VALID,248.945,VALID,21.032,VALID,100.0,VALID,0.741,
2017-09-15, 07:34:06,VALID,917.294,VALID,0.0,VALID,92.405,VALID,252.752,VALID,21.063,VALID,90.0,VALID,0.765,
2017-09-15, 07:35:06,VALID,917.319,VALID,0.0,VALID,93.179,VALID,256.339,VALID,21.17,VALID,79.0,VALID,0.65,
2017-09-15, 07:36:06,VALID,917.332,VALID,0.0,VALID,92.765,VALID,259.826,VALID,21.272,VALID,86.0,VALID,0.777,
2017-09-15, 07:37:06,VALID,917.339,VALID,0.0,VALID,89.697,VALID,261.727,VALID,21.256,VALID,118.0,VALID,0.516,
2017-09-15, 07:38:06,VALID,917.346,VALID,0.0,VALID,90.986,VALID,239.648,VALID,21.345,VALID,85.0,VALID,0.216,
2017-09-15, 07:39:06,VALID,917.356,VALID,0.0,VALID,91.33,VALID,180.606,VALID,21.467,VALID,88.0,VALID,0.152,
2017-09-15, 07:40:06,VALID,917.372,VALID,0.0,VALID,90.203,VALID,163.082,VALID,21.57,VALID,134.0,VALID,0.221,
2017-09-15, 07:41:06,VALID,917.407,VALID,0.0,VALID,90.88,VALID,160.802,VALID,21.623,VALID,233.0,VALID,0.625,
2017-09-15, 07:42:06,VALID,917.426,VALID,0.0,VALID,90.683,VALID,162.186,VALID,21.519,VALID,267.0,VALID,0.016,
2017-09-15, 07:43:06,VALID,917.443,VALID,0.0,VALID,91.649,VALID,164.523,VALID,21.49,VALID,209.0,VALID,0.043,
2017-09-15, 07:44:06,VALID,917.456,VALID,0.0,VALID,91.206,VALID,168.112,VALID,21.522,VALID,255.0,VALID,0.334,
2017-09-15, 07:45:06,VALID,917.463,VALID,0.0,VALID,90.948,VALID,172.58,VALID,21.546,VALID,264.0,VALID,0.15,
2017-09-15, 07:46:06,VALID,917.457,VALID,0.0,VALID,89.854,VALID,176.658,VALID,21.534,VALID,188.0,VALID,0.238,
2017-09-15, 07:47:06,VALID,917.465,VALID,0.0,VALID,89.508,VALID,179.802,VALID,21.537,VALID,156.0,VALID,0.468,
2017-09-15, 07:48:06,VALID,917.455,VALID,0.0,VALID,88.578,VALID,181.449,VALID,21.495,VALID,138.0,VALID,0.799,
2017-09-15, 07:49:06,VALID,917.446,VALID,0.0,VALID,89.363,VALID,183.675,VALID,21.403,VALID,125.0,VALID,0.734,
2017-09-15, 07:50:06,VALID,917.457,VALID,0.0,VALID,89.698,VALID,186.156,VALID,21.369,VALID,110.0,VALID,0.621,
2017-09-15, 07:51:06,VALID,917.465,VALID,0.0,VALID,90.48,VALID,187.088,VALID,21.375,VALID,105.0,VALID,0.88,
2017-09-15, 07:52:06,VALID,917.475,VALID,0.0,VALID,90.218,VALID,185.443,VALID,21.385,VALID,88.0,VALID,0.757,
2017-09-15, 07:53:06,VALID,917.49,VALID,0.0,VALID,89.421,VALID,185.267,VALID,21.407,VALID,87.0,VALID,0.706,
2017-09-15, 07:54:06,VALID,917.504,VALID,0.0,VALID,90.597,VALID,183.829,VALID,21.458,VALID,83.0,VALID,0.587,
2017-09-15, 07:55:06,VALID,917.527,VALID,0.0,VALID,91.122,VALID,185.031,VALID,21.507,VALID,73.0,VALID,0.516,
2017-09-15, 07:56:06,VALID,917.549,VALID,0.0,VALID,90.406,VALID,188.464,VALID,21.564,VALID,90.0,VALID,0.471,
2017-09-15, 07:57:06,VALID,917.556,VALID,0.0,VALID,91.008,VALID,196.508,VALID,21.633,VALID,58.0,VALID,0.682,
2017-09-15, 07:58:06,VALID,917.58,VALID,0.0,VALID,90.517,VALID,196.556,VALID,21.65,VALID,52.0,VALID,0.577,
2017-09-15, 07:59:06,VALID,917.587,VALID,0.0,VALID,89.646,VALID,199.923,VALID,21.672,VALID,91.0,VALID,0.503,
2017-09-15, 08:00:06,VALID,917.596,VALID,0.0,VALID,90.53,VALID,204.326,VALID,21.685,VALID,107.0,VALID,0.478,
2017-09-15, 08:01:06,VALID,917.595,VALID,0.0,VALID,89.695,VALID,201.496,VALID,21.711,VALID,99.0,VALID,0.101,
2017-09-15, 08:02:06,VALID,917.615,VALID,0.0,VALID,90.64,VALID,208.669,VALID,21.818,VALID,28.0,VALID,0.426,
2017-09-15, 08:03:06,VALID,917.623,VALID,0.0,VALID,91.345,VALID,209.349,VALID,21.936,VALID,15.0,VALID,0.7,
2017-09-15, 08:04:06,VALID,917.629,VALID,0.0,VALID,91.548,VALID,210.099,VALID,22.051,VALID,24.0,VALID,0.612,
2017-09-15, 08:05:06,VALID,917.647,VALID,0.0,VALID,91.06,VALID,218.82,VALID,22.12,VALID,34.0,VALID,0.633,
2017-09-15, 08:06:06,VALID,917.656,VALID,0.0,VALID,90.117,VALID,225.033,VALID,22.083,VALID,39.0,VALID,0.452,
2017-09-15, 08:07:06,VALID,917.663,VALID,0.0,VALID,90.62,VALID,240.345,VALID,22.008,VALID,21.0,VALID,0.493,
2017-09-15, 08:08:06,VALID,917.678,VALID,0.0,VALID,90.893,VALID,246.206,VALID,22.003,VALID,60.0,VALID,0.318,
2017-09-15, 08:09:06,VALID,917.686,VALID,0.0,VALID,91.276,VALID,253.488,VALID,22.024,VALID,27.0,VALID,0.421,
2017-09-15, 08:10:06,VALID,917.696,VALID,0.0,VALID,91.287,VALID,251.785,VALID,22.063,VALID,60.0,VALID,0.22,
2017-09-15, 08:11:06,VALID,917.706,VALID,0.0,VALID,89.633,VALID,242.932,VALID,22.137,VALID,105.0,VALID,0.59,
2017-09-15, 08:12:06,VALID,917.734,VALID,0.0,VALID,89.026,VALID,234.914,VALID,22.24,VALID,137.0,VALID,0.648,
2017-09-15, 08:13:06,VALID,917.755,VALID,0.0,VALID,88.785,VALID,229.313,VALID,22.319,VALID,156.0,VALID,0.764,
2017-09-15, 08:14:06,VALID,917.795,VALID,0.0,VALID,87.951,VALID,225.796,VALID,22.371,VALID,148.0,VALID,0.964,
2017-09-15, 08:15:06,VALID,917.825,VALID,0.0,VALID,87.398,VALID,224.263,VALID,22.273,VALID,141.0,VALID,1.139,
2017-09-15, 08:16:06,VALID,917.855,VALID,0.0,VALID,88.396,VALID,225.111,VALID,22.118,VALID,140.0,VALID,0.782,
2017-09-15, 08:17:06,VALID,917.897,VALID,0.0,VALID,89.281,VALID,225.882,VALID,22.045,VALID,140.0,VALID,0.624,
2017-09-15, 08:18:06,VALID,917.915,VALID,0.0,VALID,89.797,VALID,225.124,VALID,22.106,VALID,152.0,VALID,0.623,
2017-09-15, 08:19:06,VALID,917.947,VALID,0.0,VALID,89.537,VALID,224.927,VALID,22.198,VALID,155.0,VALID,0.142,
2017-09-15, 08:20:06,VALID,917.96,VALID,0.0,VALID,88.688,VALID,224.601,VALID,22.298,VALID,180.0,VALID,0.304,
2017-09-15, 08:21:06,VALID,917.966,VALID,0.0,VALID,88.338,VALID,224.317,VALID,22.37,VALID,165.0,VALID,0.617,
2017-09-15, 08:22:06,VALID,917.977,VALID,0.0,VALID,88.591,VALID,224.476,VALID,22.327,VALID,155.0,VALID,0.973,
2017-09-15, 08:23:06,VALID,917.982,VALID,0.0,VALID,88.065,VALID,225.521,VALID,22.276,VALID,161.0,VALID,0.878,
2017-09-15, 08:24:06,VALID,917.992,VALID,0.0,VALID,87.633,VALID,228.076,VALID,22.211,VALID,150.0,VALID,0.877,
2017-09-15, 08:25:06,VALID,918.017,VALID,0.0,VALID,88.239,VALID,227.615,VALID,22.182,VALID,152.0,VALID,0.366,
2017-09-15, 08:26:06,VALID,918.03,VALID,0.0,VALID,87.637,VALID,224.939,VALID,22.175,VALID,151.0,VALID,0.811,
2017-09-15, 08:27:06,VALID,918.044,VALID,0.0,VALID,87.014,VALID,225.607,VALID,22.102,VALID,150.0,VALID,1.104,
2017-09-15, 08:28:06,VALID,918.073,VALID,0.0,VALID,87.439,VALID,228.47,VALID,22.098,VALID,154.0,VALID,0.702,
2017-09-15, 08:29:06,VALID,918.091,VALID,0.0,VALID,87.445,VALID,231.673,VALID,22.124,VALID,151.0,VALID,0.885,
2017-09-15, 08:30:06,VALID,918.11,VALID,0.0,VALID,88.312,VALID,234.35,VALID,22.201,VALID,135.0,VALID,0.477,
2017-09-15, 08:31:06,VALID,918.137,VALID,0.0,VALID,87.633,VALID,235.97,VALID,22.281,VALID,148.0,VALID,0.744,
2017-09-15, 08:32:06,VALID,918.163,VALID,0.0,VALID,87.317,VALID,234.576,VALID,22.33,VALID,176.0,VALID,0.513,
2017-09-15, 08:33:06,VALID,918.187,VALID,0.0,VALID,87.301,VALID,231.713,VALID,22.44,VALID,154.0,VALID,0.288,
2017-09-15, 08:34:06,VALID,918.194,VALID,0.0,VALID,86.837,VALID,227.915,VALID,22.554,VALID,154.0,VALID,0.56,
2017-09-15, 08:35:06,VALID,918.211,VALID,0.0,VALID,86.04,VALID,225.087,VALID,22.627,VALID,150.0,VALID,0.161,
2017-09-15, 08:36:06,VALID,918.223,VALID,0.0,VALID,86.513,VALID,224.587,VALID,22.713,VALID,150.0,VALID,0.0,
2017-09-15, 08:37:06,VALID,918.242,VALID,0.0,VALID,85.311,VALID,225.784,VALID,22.838,VALID,173.0,VALID,0.0,
2017-09-15, 08:38:06,VALID,918.25,VALID,0.0,VALID,85.335,VALID,228.586,VALID,22.977,VALID,177.0,VALID,0.021,
2017-09-15, 08:39:06,VALID,918.273,VALID,0.0,VALID,84.907,VALID,234.543,VALID,23.081,VALID,153.0,VALID,0.143,
2017-09-15, 08:40:06,VALID,918.285,VALID,0.0,VALID,83.483,VALID,244.338,VALID,23.169,VALID,191.0,VALID,0.028,
2017-09-15, 08:41:06,VALID,918.313,VALID,0.0,VALID,81.691,VALID,248.064,VALID,23.219,VALID,194.0,VALID,0.124,
2017-09-15, 08:42:06,VALID,918.324,VALID,0.0,VALID,80.366,VALID,255.113,VALID,23.25,VALID,191.0,VALID,0.187,
2017-09-15, 08:43:06,VALID,918.343,VALID,0.0,VALID,82.36,VALID,263.652,VALID,23.307,VALID,155.0,VALID,0.298,
2017-09-15, 08:44:06,VALID,918.352,VALID,0.0,VALID,81.318,VALID,269.039,VALID,23.376,VALID,175.0,VALID,0.077,
2017-09-15, 08:45:06,VALID,918.373,VALID,0.0,VALID,79.433,VALID,279.082,VALID,23.447,VALID,202.0,VALID,0.102,
2017-09-15, 08:46:06,VALID,918.378,VALID,0.0,VALID,78.9,VALID,293.365,VALID,23.523,VALID,200.0,VALID,0.169,
2017-09-15, 08:47:06,VALID,918.391,VALID,0.0,VALID,78.276,VALID,330.799,VALID,23.567,VALID,189.0,VALID,0.131,
2017-09-15, 08:48:06,VALID,918.404,VALID,0.0,VALID,78.115,VALID,391.679,VALID,23.636,VALID,180.0,VALID,0.046,
2017-09-15, 08:49:06,VALID,918.409,VALID,0.0,VALID,77.669,VALID,467.866,VALID,23.764,VALID,190.0,VALID,0.132,
2017-09-15, 08:50:06,VALID,918.416,VALID,0.0,VALID,77.051,VALID,493.897,VALID,23.964,VALID,184.0,VALID,0.077,
2017-09-15, 08:51:06,VALID,918.425,VALID,0.0,VALID,74.273,VALID,465.559,VALID,24.151,VALID,180.0,VALID,0.007,
2017-09-15, 08:52:06,VALID,918.428,VALID,0.0,VALID,74.204,VALID,484.579,VALID,24.297,VALID,198.0,VALID,0.01,
2017-09-15, 08:53:06,VALID,918.451,VALID,0.0,VALID,73.777,VALID,599.638,VALID,24.295,VALID,239.0,VALID,0.038,
2017-09-15, 08:54:06,VALID,918.452,VALID,0.0,VALID,75.166,VALID,566.329,VALID,24.316,VALID,192.0,VALID,0.134,
2017-09-15, 08:55:06,VALID,918.447,VALID,0.0,VALID,75.579,VALID,527.489,VALID,24.388,VALID,96.0,VALID,0.8,
2017-09-15, 08:56:06,VALID,918.453,VALID,0.0,VALID,75.074,VALID,505.16,VALID,24.127,VALID,99.0,VALID,0.486,
2017-09-15, 08:57:06,VALID,918.454,VALID,0.0,VALID,77.537,VALID,535.146,VALID,23.949,VALID,77.0,VALID,0.941,
2017-09-15, 08:58:06,VALID,918.451,VALID,0.0,VALID,79.136,VALID,490.203,VALID,23.775,VALID,72.0,VALID,0.789,
2017-09-15, 08:59:06,VALID,918.468,VALID,0.0,VALID,80.305,VALID,471.48,VALID,23.622,VALID,59.0,VALID,0.547,
2017-09-15, 09:00:06,VALID,918.466,VALID,0.0,VALID,82.175,VALID,564.087,VALID,23.765,VALID,73.0,VALID,0.527,
2017-09-15, 09:01:06,VALID,918.463,VALID,0.0,VALID,80.505,VALID,647.557,VALID,23.996,VALID,113.0,VALID,0.356,
2017-09-15, 09:02:06,VALID,918.47,VALID,0.0,VALID,76.446,VALID,640.324,VALID,24.169,VALID,146.0,VALID,0.048,
2017-09-15, 09:03:06,VALID,918.477,VALID,0.0,VALID,75.093,VALID,690.124,VALID,24.369,VALID,250.0,VALID,0.129,
2017-09-15, 09:04:06,VALID,918.485,VALID,0.0,VALID,75.346,VALID,685.266,VALID,24.651,VALID,338.0,VALID,0.133,
2017-09-15, 09:05:06,VALID,918.487,VALID,0.0,VALID,74.859,VALID,665.734,VALID,25.053,VALID,359.0,VALID,0.833,
2017-09-15, 09:06:06,VALID,918.498,VALID,0.0,VALID,73.0,VALID,660.456,VALID,25.026,VALID,14.0,VALID,1.162,
2017-09-15, 09:07:06,VALID,918.519,VALID,0.0,VALID,73.923,VALID,662.526,VALID,24.847,VALID,13.0,VALID,0.882,
2017-09-15, 09:08:06,VALID,918.54,VALID,0.0,VALID,73.555,VALID,665.239,VALID,24.933,VALID,338.0,VALID,0.845,
2017-09-15, 09:09:06,VALID,918.55,VALID,0.0,VALID,72.593,VALID,667.77,VALID,24.888,VALID,348.0,VALID,0.284,
2017-09-15, 09:10:06,VALID,918.551,VALID,0.0,VALID,73.287,VALID,679.128,VALID,24.906,VALID,352.0,VALID,0.38,
2017-09-15, 09:11:06,VALID,918.551,VALID,0.0,VALID,73.162,VALID,702.292,VALID,24.872,VALID,16.0,VALID,0.536,
2017-09-15, 09:12:06,VALID,918.561,VALID,0.0,VALID,75.003,VALID,699.035,VALID,24.933,VALID,353.0,VALID,0.253,
2017-09-15, 09:13:06,VALID,918.58,VALID,0.0,VALID,74.471,VALID,622.243,VALID,25.286,VALID,11.0,VALID,0.539,
2017-09-15, 09:14:06,VALID,918.593,VALID,0.0,VALID,71.227,VALID,630.496,VALID,25.582,VALID,266.0,VALID,0.497,
2017-09-15, 09:15:06,VALID,918.605,VALID,0.0,VALID,69.765,VALID,528.485,VALID,25.387,VALID,304.0,VALID,0.541,
2017-09-15, 09:16:06,VALID,918.608,VALID,0.0,VALID,71.567,VALID,473.577,VALID,25.004,VALID,290.0,VALID,0.859,
2017-09-15, 09:17:06,VALID,918.624,VALID,0.0,VALID,72.984,VALID,447.684,VALID,24.655,VALID,282.0,VALID,0.66,
2017-09-15, 09:18:06,VALID,918.628,VALID,0.0,VALID,76.303,VALID,464.406,VALID,24.52,VALID,343.0,VALID,0.616,
2017-09-15, 09:19:06,VALID,918.631,VALID,0.0,VALID,76.847,VALID,413.488,VALID,24.629,VALID,10.0,VALID,0.899,
2017-09-15, 09:20:06,VALID,918.646,VALID,0.0,VALID,76.366,VALID,415.609,VALID,24.813,VALID,354.0,VALID,0.546,
2017-09-15, 09:21:06,VALID,918.643,VALID,0.0,VALID,75.527,VALID,461.968,VALID,24.974,VALID,323.0,VALID,0.281,
2017-09-15, 09:22:06,VALID,918.636,VALID,0.0,VALID,73.804,VALID,316.454,VALID,24.977,VALID,8.0,VALID,0.262,
2017-09-15, 09:23:06,VALID,918.642,VALID,0.0,VALID,75.212,VALID,264.299,VALID,24.964,VALID,343.0,VALID,0.31,
2017-09-15, 09:24:06,VALID,918.633,VALID,0.0,VALID,74.313,VALID,246.344,VALID,24.918,VALID,279.0,VALID,0.248,
2017-09-15, 09:25:06,VALID,918.644,VALID,0.0,VALID,74.946,VALID,245.92,VALID,24.892,VALID,344.0,VALID,0.273,
2017-09-15, 09:26:06,VALID,918.641,VALID,0.0,VALID,73.787,VALID,246.8,VALID,24.949,VALID,262.0,VALID,0.091,
2017-09-15, 09:27:06,VALID,918.644,VALID,0.0,VALID,76.03,VALID,246.689,VALID,25.009,VALID,245.0,VALID,0.04,
2017-09-15, 09:28:06,VALID,918.65,VALID,0.0,VALID,75.896,VALID,249.71,VALID,25.021,VALID,16.0,VALID,0.545,
2017-09-15, 09:29:06,VALID,918.644,VALID,0.0,VALID,74.357,VALID,253.368,VALID,25.017,VALID,333.0,VALID,0.12,
2017-09-15, 09:30:06,VALID,918.648,VALID,0.0,VALID,73.976,VALID,254.359,VALID,24.914,VALID,345.0,VALID,0.705,
2017-09-15, 09:31:06,VALID,918.639,VALID,0.0,VALID,74.995,VALID,256.58,VALID,24.722,VALID,328.0,VALID,0.481,
2017-09-15, 09:32:06,VALID,918.631,VALID,0.0,VALID,75.525,VALID,263.305,VALID,24.624,VALID,316.0,VALID,0.204,
2017-09-15, 09:33:06,VALID,918.628,VALID,0.0,VALID,74.519,VALID,277.945,VALID,24.565,VALID,295.0,VALID,0.0,
2017-09-15, 09:34:06,VALID,918.623,VALID,0.0,VALID,75.288,VALID,300.196,VALID,24.581,VALID,296.0,VALID,0.443,
2017-09-15, 09:35:06,VALID,918.601,VALID,0.0,VALID,76.087,VALID,366.8,VALID,24.512,VALID,307.0,VALID,0.386,
2017-09-15, 09:36:06,VALID,918.585,VALID,0.0,VALID,75.503,VALID,453.366,VALID,24.451,VALID,290.0,VALID,0.121,
2017-09-15, 09:37:06,VALID,918.569,VALID,0.0,VALID,75.856,VALID,481.47,VALID,24.527,VALID,201.0,VALID,0.068,
2017-09-15, 09:38:06,VALID,918.555,VALID,0.0,VALID,76.158,VALID,607.945,VALID,24.714,VALID,211.0,VALID,0.067,
2017-09-15, 09:39:06,VALID,918.531,VALID,0.0,VALID,76.045,VALID,621.75,VALID,24.855,VALID,330.0,VALID,0.177,
2017-09-15, 09:40:06,VALID,918.534,VALID,0.0,VALID,76.919,VALID,624.145,VALID,25.135,VALID,357.0,VALID,0.054,
2017-09-15, 09:41:06,VALID,918.525,VALID,0.0,VALID,75.609,VALID,649.133,VALID,25.528,VALID,348.0,VALID,0.063,
2017-09-15, 09:42:06,VALID,918.535,VALID,0.0,VALID,73.229,VALID,634.402,VALID,25.629,VALID,266.0,VALID,0.304,
2017-09-15, 09:43:06,VALID,918.529,VALID,0.0,VALID,73.888,VALID,633.601,VALID,25.524,VALID,291.0,VALID,0.273,
2017-09-15, 09:44:06,VALID,918.534,VALID,0.0,VALID,74.351,VALID,547.758,VALID,25.59,VALID,207.0,VALID,0.103,
2017-09-15, 09:45:06,VALID,918.514,VALID,0.0,VALID,74.409,VALID,455.162,VALID,25.746,VALID,243.0,VALID,0.375,
2017-09-15, 09:46:06,VALID,918.509,VALID,0.0,VALID,74.347,VALID,624.619,VALID,25.769,VALID,287.0,VALID,0.273,
2017-09-15, 09:47:06,VALID,918.498,VALID,0.0,VALID,74.715,VALID,651.925,VALID,25.864,VALID,51.0,VALID,0.469,
2017-09-15, 09:48:06,VALID,918.501,VALID,0.0,VALID,74.194,VALID,606.486,VALID,25.95,VALID,314.0,VALID,0.508,
2017-09-15, 09:49:06,VALID,918.492,VALID,0.0,VALID,73.102,VALID,601.072,VALID,25.897,VALID,306.0,VALID,0.325,
2017-09-15, 09:50:06,VALID,918.471,VALID,0.0,VALID,75.027,VALID,608.133,VALID,25.778,VALID,151.0,VALID,0.276,
2017-09-15, 09:51:06,VALID,918.465,VALID,0.0,VALID,73.638,VALID,581.337,VALID,25.911,VALID,19.0,VALID,0.268,
2017-09-15, 09:52:06,VALID,918.476,VALID,0.0,VALID,73.453,VALID,555.033,VALID,26.085,VALID,308.0,VALID,0.463,
2017-09-15, 09:53:06,VALID,918.471,VALID,0.0,VALID,71.076,VALID,547.286,VALID,25.98,VALID,245.0,VALID,0.095,
2017-09-15, 09:54:06,VALID,918.485,VALID,0.0,VALID,73.016,VALID,539.197,VALID,25.87,VALID,293.0,VALID,0.395,
2017-09-15, 09:55:06,VALID,918.471,VALID,0.0,VALID,71.193,VALID,542.29,VALID,25.752,VALID,9.0,VALID,0.525,
2017-09-15, 09:56:06,VALID,918.479,VALID,0.0,VALID,73.794,VALID,558.126,VALID,25.759,VALID,34.0,VALID,0.665,
